Total_Precipitation_Accumulation
0.88 0.76 0.70 0.62 0.52 0.43 0.36 0.37 0.37 0.32 0.32 0.30 0.23 0.19 0.19 0.14 0.11 0.10 0.09 0.09 0.10 0.13 0.15 0.19 0.21 0.24 0.30 0.34 0.39 0.42 0.40 0.37 0.35 0.35 0.34 0.32 0.30 0.30 0.33 0.34 0.34 0.34 0.37
0.95 0.87 0.74 0.63 0.57 0.48 0.39 0.34 0.34 0.34 0.33 0.33 0.30 0.25 0.24 0.20 0.15 0.14 0.13 0.12 0.12 0.13 0.14 0.15 0.20 0.29 0.39 0.48 0.53 0.53 0.48 0.43 0.41 0.41 0.41 0.39 0.37 0.36 0.36 0.36 0.36 0.37 0.40
0.97 0.95 0.81 0.64 0.56 0.54 0.48 0.43 0.42 0.39 0.36 0.32 0.29 0.28 0.28 0.24 0.19 0.16 0.15 0.14 0.12 0.13 0.14 0.13 0.15 0.24 0.36 0.48 0.58 0.63 0.58 0.51 0.48 0.47 0.46 0.44 0.41 0.41 0.44 0.45 0.43 0.41 0.41
1.12 1.05 0.93 0.77 0.73 0.73 0.65 0.55 0.50 0.44 0.38 0.36 0.33 0.33 0.31 0.29 0.23 0.20 0.18 0.16 0.14 0.13 0.15 0.14 0.13 0.17 0.26 0.38 0.54 0.67 0.69 0.65 0.60 0.54 0.49 0.46 0.45 0.46 0.49 0.51 0.51 0.49 0.50
1.17 1.09 0.96 0.91 0.93 0.84 0.75 0.67 0.59 0.54 0.46 0.44 0.42 0.40 0.40 0.38 0.30 0.27 0.25 0.23 0.21 0.19 0.19 0.18 0.16 0.15 0.16 0.22 0.35 0.53 0.65 0.68 0.63 0.55 0.51 0.49 0.48 0.49 0.51 0.52 0.52 0.51 0.53
1.21 1.13 1.02 0.99 1.03 0.96 0.85 0.77 0.70 0.65 0.59 0.56 0.55 0.45 0.42 0.43 0.39 0.31 0.28 0.26 0.25 0.25 0.23 0.21 0.19 0.16 0.16 0.18 0.22 0.33 0.50 0.62 0.64 0.59 0.56 0.53 0.53 0.54 0.57 0.59 0.59 0.56 0.55
1.49 1.34 1.13 1.10 1.11 1.01 0.91 0.88 0.88 0.84 0.76 0.72 0.68 0.53 0.44 0.39 0.37 0.30 0.26 0.25 0.24 0.24 0.24 0.24 0.22 0.19 0.17 0.18 0.21 0.24 0.33 0.50 0.64 0.67 0.64 0.61 0.61 0.63 0.67 0.72 0.73 0.71 0.71
1.51 1.48 1.40 1.31 1.27 1.23 1.15 1.07 1.05 1.02 0.95 0.92 0.86 0.78 0.58 0.44 0.36 0.31 0.27 0.26 0.25 0.25 0.25 0.24 0.23 0.22 0.20 0.19 0.20 0.21 0.25 0.38 0.55 0.70 0.74 0.73 0.71 0.74 0.81 0.86 0.88 0.87 0.87
1.59 1.50 1.49 1.50 1.47 1.40 1.29 1.22 1.19 1.19 1.15 1.07 1.02 1.05 0.81 0.56 0.42 0.37 0.33 0.29 0.27 0.27 0.28 0.28 0.26 0.26 0.24 0.23 0.21 0.22 0.24 0.28 0.41 0.64 0.83 0.89 0.89 0.90 0.95 1.02 1.06 1.08 1.06
1.64 1.57 1.54 1.53 1.56 1.49 1.38 1.38 1.38 1.26 1.28 1.24 1.18 1.08 0.93 0.74 0.66 0.52 0.41 0.39 0.36 0.32 0.33 0.33 0.31 0.29 0.27 0.26 0.26 0.28 0.31 0.32 0.40 0.61 0.86 1.00 1.04 1.10 1.21 1.30 1.37 1.35 1.26
1.55 1.49 1.49 1.52 1.50 1.49 1.44 1.44 1.45 1.44 1.37 1.33 1.27 1.22 1.20 1.05 0.89 0.82 0.64 0.51 0.48 0.44 0.42 0.42 0.42 0.40 0.36 0.34 0.33 0.37 0.43 0.45 0.52 0.65 0.84 1.02 1.14 1.24 1.36 1.47 1.55 1.58 1.50
1.45 1.37 1.33 1.36 1.41 1.42 1.39 1.39 1.47 1.52 1.51 1.40 1.29 1.19 1.16 1.11 0.99 0.97 0.87 0.67 0.60 0.51 0.49 0.46 0.45 0.47 0.51 0.52 0.53 0.61 0.61 0.63 0.68 0.75 0.88 1.04 1.16 1.26 1.39 1.53 1.63 1.68 1.67
1.41 1.33 1.28 1.28 1.32 1.36 1.41 1.47 1.48 1.48 1.54 1.51 1.44 1.34 1.26 1.14 1.06 1.07 1.05 0.88 0.73 0.60 0.56 0.53 0.51 0.51 0.55 0.62 0.67 0.81 0.77 0.79 0.81 0.86 0.98 1.13 1.19 1.20 1.24 1.34 1.50 1.60 1.65
1.27 1.29 1.32 1.35 1.36 1.38 1.39 1.41 1.39 1.36 1.42 1.44 1.42 1.37 1.30 1.21 1.20 1.19 1.18 1.22 1.12 0.89 0.76 0.69 0.66 0.66 0.68 0.73 0.83 0.93 0.83 0.91 0.87 0.86 0.95 1.04 1.04 1.02 1.01 1.09 1.29 1.47 1.54
1.16 1.20 1.26 1.29 1.30 1.29 1.29 1.31 1.29 1.26 1.30 1.34 1.36 1.36 1.30 1.19 1.18 1.18 1.19 1.26 1.37 1.22 0.92 0.72 0.68 0.69 0.74 0.77 0.87 0.83 0.77 0.92 0.91 0.85 0.86 0.86 0.84 0.83 0.81 0.83 0.92 1.09 1.20
0.96 1.00 1.08 1.14 1.15 1.13 1.12 1.16 1.16 1.14 1.17 1.17 1.19 1.26 1.27 1.20 1.16 1.16 1.19 1.22 1.31 1.36 1.15 0.78 0.67 0.67 0.73 0.75 0.83 0.75 0.70 0.84 0.82 0.79 0.77 0.74 0.73 0.70 0.69 0.70 0.72 0.81 0.91
0.87 0.91 0.94 1.00 1.02 1.01 1.01 1.01 1.00 0.99 1.01 1.01 1.04 1.07 1.10 1.13 1.17 1.17 1.18 1.21 1.26 1.32 1.29 0.95 0.77 0.76 0.81 0.80 0.80 0.74 0.67 0.65 0.65 0.75 0.70 0.67 0.65 0.63 0.62 0.62 0.63 0.66 0.69
0.77 0.76 0.79 0.83 0.84 0.84 0.84 0.86 0.86 0.86 0.86 0.86 0.88 0.94 0.95 0.99 1.04 1.08 1.14 1.19 1.21 1.23 1.25 1.09 0.86 0.78 0.76 0.74 0.71 0.69 0.64 0.59 0.54 0.65 0.64 0.61 0.59 0.57 0.54 0.53 0.56 0.60 0.62
0.79 0.70 0.68 0.69 0.70 0.71 0.72 0.72 0.73 0.74 0.75 0.76 0.77 0.81 0.84 0.90 0.96 0.98 1.01 1.04 1.05 1.06 1.10 1.07 0.88 0.74 0.68 0.65 0.66 0.62 0.56 0.53 0.49 0.53 0.55 0.55 0.55 0.55 0.56 0.55 0.56 0.57 0.56
0.72 0.67 0.62 0.60 0.60 0.63 0.67 0.68 0.68 0.69 0.70 0.71 0.73 0.77 0.80 0.83 0.85 0.87 0.91 0.92 0.92 0.93 0.95 0.97 0.91 0.80 0.73 0.69 0.71 0.69 0.63 0.57 0.52 0.47 0.53 0.54 0.55 0.55 0.51 0.49 0.48 0.49 0.51
0.60 0.60 0.58 0.56 0.55 0.55 0.58 0.62 0.65 0.67 0.69 0.71 0.72 0.74 0.78 0.86 0.89 0.86 0.84 0.83 0.83 0.88 0.92 0.98 0.95 0.81 0.68 0.65 0.65 0.61 0.61 0.61 0.60 0.55 0.54 0.49 0.44 0.40 0.39 0.41 0.45 0.47 0.52
0.51 0.56 0.58 0.60 0.62 0.64 0.77 0.74 0.68 0.68 0.72 0.72 0.71 0.69 0.69 0.73 0.73 0.75 0.74 0.73 0.77 0.85 0.95 1.00 0.90 0.73 0.58 0.52 0.52 0.57 0.63 0.69 0.63 0.46 0.48 0.47 0.44 0.43 0.38 0.36 0.45 0.49 0.50
0.61 0.65 0.70 0.73 0.73 0.79 0.88 0.79 0.75 0.67 0.68 0.69 0.66 0.62 0.58 0.57 0.58 0.51 0.56 0.60 0.62 0.70 0.73 0.67 0.60 0.53 0.49 0.48 0.58 0.68 0.67 0.66 0.54 0.41 0.48 0.52 0.46 0.44 0.39 0.40 0.47 0.44 0.44
0.86 0.88 0.92 0.93 0.91 0.89 0.87 0.77 0.74 0.64 0.60 0.56 0.51 0.46 0.43 0.40 0.39 0.40 0.43 0.51 0.49 0.47 0.47 0.44 0.42 0.40 0.40 0.44 0.54 0.68 0.70 0.69 0.56 0.45 0.46 0.50 0.41 0.38 0.35 0.36 0.44 0.44 0.44
0.98 0.94 0.90 0.88 0.84 0.77 0.73 0.64 0.56 0.47 0.46 0.44 0.39 0.36 0.36 0.34 0.40 0.47 0.47 0.48 0.39 0.34 0.38 0.43 0.45 0.44 0.46 0.46 0.48 0.60 0.72 0.80 0.70 0.47 0.39 0.42 0.36 0.34 0.35 0.34 0.37 0.44 0.43
0.75 0.69 0.65 0.61 0.58 0.53 0.51 0.47 0.43 0.37 0.34 0.31 0.30 0.31 0.36 0.36 0.43 0.51 0.47 0.43 0.36 0.32 0.33 0.38 0.42 0.43 0.41 0.43 0.48 0.50 0.65 0.91 0.81 0.58 0.32 0.38 0.42 0.48 0.62 0.38 0.31 0.34 0.38